Prescott, AZ

11:04 AM MST on December 02, 2016 (GMT -0700)
Love

Weather History for KPRC - February, 2014

Change the Weather History Date:

Sunday, February 16, 2014

  Actual Average Record
Temperature  
Mean Temperature 54 °F 42 °F  
Max Temperature 68 °F 55 °F 74 °F (2016)
Min Temperature 40 °F 28 °F 10 °F (1990)
Degree Days  
Heating Degree Days 11    
Month to date heating degree days 335  
Since 1 July heating degree days 2727  
Cooling Degree Days 0    
Month to date cooling degree days 0  
Year to date cooling degree days 0  
Growing Degree Days 4 (Base 50)    
Moisture  
Dew Point 20 °F    
Average Humidity 28    
Maximum Humidity 53    
Minimum Humidity 15    
Precipitation  
Precipitation 0.00 in 0.05 in 0.22 in (1973)
Month to date precipitation T 0.74  
Year to date precipitation 0.05 1.86  
Sea Level Pressure  
Sea Level Pressure 29.98 in    
Wind  
Wind Speed 8 mph (SW)    
Max Wind Speed 23 mph    
Max Gust Speed 29 mph    
Visibility 10 miles    
Events      
T = Trace of Precipitation, MM = Missing Value Source: NWS Daily Summary

Daily Weather History Graph

Daily Weather History Graph

Search for Another Location

Airport or City:

Trip Planner

Search our weather history database for the weather conditions in past years. The results will help you decide how hot, cold, wet, or windy it might be!

Date:

Astronomy

Feb. 16, 2014 Rise Set
Actual Time 7:14 AM MST 6:13 PM MST
Civil Twilight 6:48 AM MST 6:39 PM MST
Nautical Twilight 6:18 AM MST 7:09 PM MST
Astronomical Twilight 5:49 AM MST 7:38 PM MST
Moon 8:07 PM MST (2/16) 7:51 AM MST (2/16)
Length of Visible Light 11h 51m
Length of Day
10h 59m
Full, 97% of the Moon is Illuminated
Feb 16
Full
Feb 22
Last Quarter
Mar 1
New
Mar 8
First Quarter
Mar 16
Full

Hourly Weather History & Observations

Time (MST) Temp. Windchill Dew Point Humidity Pressure Visibility Wind Dir Wind Speed Gust Speed Precip Events Conditions
12:53 AM 54.0 °F - 14.0 °F 21% 29.94 in 10.0 mi SSW 11.5 mph - N/A   Clear
1:53 AM 51.1 °F - 15.1 °F 24% 29.94 in 10.0 mi SW 9.2 mph - N/A   Clear
2:53 AM 46.0 °F 43.9 °F 15.1 °F 29% 29.95 in 10.0 mi West 4.6 mph - N/A   Clear
3:53 AM 50.0 °F - 15.1 °F 25% 29.92 in 10.0 mi Calm Calm - N/A   Clear
4:53 AM 48.0 °F - 18.0 °F 30% 29.92 in 10.0 mi Calm Calm - N/A   Clear
5:53 AM 48.9 °F - 19.0 °F 31% 29.95 in 10.0 mi SSW 5.8 mph - N/A   Clear
6:53 AM 48.9 °F - 19.9 °F 32% 29.96 in 10.0 mi South 6.9 mph - N/A   Clear
7:53 AM 46.9 °F - 21.9 °F 37% 29.99 in 10.0 mi South 4.6 mph - N/A   Clear
8:53 AM 52.0 °F - 21.9 °F 31% 29.99 in 10.0 mi SSE 6.9 mph - N/A   Clear
9:53 AM 59.0 °F - 21.9 °F 24% 29.99 in 10.0 mi South 6.9 mph - N/A   Clear
10:53 AM 63.0 °F - 19.0 °F 18% 29.98 in 10.0 mi SE 6.9 mph - N/A   Clear
11:53 AM 64.9 °F - 16.0 °F 15% 29.98 in 10.0 mi West 15.0 mph - N/A   Clear
12:53 PM 64.9 °F - 16.0 °F 15% 29.97 in 10.0 mi WSW 12.7 mph - N/A   Clear
1:53 PM 66.9 °F - 17.1 °F 15% 29.95 in 10.0 mi WSW 16.1 mph 23.0 mph N/A   Clear
2:53 PM 66.9 °F - 18.0 °F 15% 29.95 in 10.0 mi WSW 16.1 mph - N/A   Clear
3:53 PM 66.0 °F - 19.0 °F 17% 29.95 in 10.0 mi WSW 18.4 mph 25.3 mph N/A   Clear
4:53 PM 63.0 °F - 19.9 °F 19% 29.95 in 10.0 mi SW 8.1 mph - N/A   Clear
5:53 PM 62.1 °F - 21.0 °F 21% 29.98 in 10.0 mi Variable 3.5 mph - N/A   Clear
6:53 PM 53.1 °F - 21.0 °F 29% 30.04 in 10.0 mi West 5.8 mph - N/A   Clear
7:53 PM 50.0 °F - 24.1 °F 36% 30.06 in 10.0 mi SSW 5.8 mph - N/A   Clear
8:53 PM 46.9 °F - 24.1 °F 41% 30.07 in 10.0 mi SSW 5.8 mph - N/A   Clear
9:53 PM 46.9 °F - 23.0 °F 39% 30.06 in 10.0 mi South 8.1 mph - N/A   Clear
10:53 PM 42.1 °F 37.7 °F 26.1 °F 53% 30.06 in 10.0 mi South 6.9 mph - N/A   Clear
11:53 PM 42.1 °F 40.2 °F 24.1 °F 49% 30.07 in 10.0 mi SW 3.5 mph - N/A   Clear